Weather History for Bentonville, AR

Change the Weather History Date:

Sunday, November 6, 2011

  Actual Average Record
Temperature  
Mean Temperature 60 °F -  
Max Temperature 64 °F 59 °F 78 °F (1978)
Min Temperature 55 °F 35 °F 15 °F (1959)
Degree Days  
Heating Degree Days 6    
Growing Degree Days 10 (Base 50)    
Moisture  
Dew Point 51 °F    
Average Humidity 71    
Maximum Humidity 77    
Minimum Humidity 63    
Precipitation  
Precipitation 0.00 in - - ()
Sea Level Pressure  
Sea Level Pressure 29.98 in    
Wind  
Wind Speed 12 mph (South)    
Max Wind Speed 17 mph    
Max Gust Speed 25 mph    
Visibility 10 miles    
Events      
Averages and records for this station are not official NWS values.
T = Trace of Precipitation, MM = Missing Value Source: NWS Daily Summary

Daily Weather History Graph

Daily Weather History Graph

Search for Another Location

Airport:

Trip Planner

Search our weather history database for the weather conditions in past years. The results will help you decide how hot, cold, wet, or windy it might be!

Date:

Astronomy

Nov. 06, 2011 Rise Set
Actual Time 6:44 AM CST 5:15 PM CST
Civil Twilight 6:17 AM CST 5:42 PM CST
Nautical Twilight 5:47 AM CST 6:13 PM CST
Astronomical Twilight 5:16 AM CST 6:43 PM CST
Moon 2:55 PM CST (11/6) 2:57 AM CST (11/6)
Length of Visible Light 11h 24m
Length of Day
10h 31m
Waxing Gibbous, 86% of the Moon is Illuminated
Nov 6
Waxing Gibbous
Nov 10
Full
Nov 18
Last Quarter
Nov 25
New
Dec 2
First Quarter

Hourly Weather History & Observations

Time (CST) Temp. Dew Point Humidity Pressure Visibility Wind Dir Wind Speed Gust Speed Precip Events Conditions
12:15 AM 55.4 °F 44.6 °F 67% 29.93 in 10.0 mi South 16.1 mph 25.3 mph N/A   Clear
12:35 AM 55.4 °F 44.6 °F 67% 29.92 in 10.0 mi South 15.0 mph 23.0 mph N/A   Clear
12:55 AM 55.4 °F 44.6 °F 67% 29.92 in 10.0 mi South 16.1 mph 24.2 mph N/A   Clear
1:15 AM 55.4 °F 44.6 °F 67% 29.91 in 10.0 mi South 17.3 mph 23.0 mph N/A   Clear
1:35 AM 55.4 °F 44.6 °F 67% 29.91 in 10.0 mi South 12.7 mph 20.7 mph N/A   Clear
1:55 AM 55.4 °F 44.6 °F 67% 29.92 in 10.0 mi South 13.8 mph 24.2 mph N/A   Clear
1:15 AM 55.4 °F 44.6 °F 67% 29.92 in 10.0 mi South 15.0 mph 20.7 mph N/A   Clear
1:35 AM 55.4 °F 44.6 °F 67% 29.92 in 10.0 mi South 15.0 mph 25.3 mph N/A   Clear
1:55 AM 55.4 °F 44.6 °F 67% 29.92 in 10.0 mi South 11.5 mph 20.7 mph N/A   Clear
2:15 AM 55.4 °F 44.6 °F 67% 29.93 in 10.0 mi South 13.8 mph 19.6 mph N/A   Mostly Cloudy
2:35 AM 55.4 °F 44.6 °F 67% 29.94 in 10.0 mi South 10.4 mph 20.7 mph N/A   Scattered Clouds
2:55 AM 55.4 °F 44.6 °F 67% 29.94 in 10.0 mi South 10.4 mph 16.1 mph N/A   Mostly Cloudy
3:15 AM 55.4 °F 44.6 °F 67% 29.94 in 10.0 mi South 12.7 mph 20.7 mph N/A   Mostly Cloudy
3:35 AM 57.2 °F 44.6 °F 63% 29.94 in 10.0 mi South 9.2 mph 16.1 mph N/A   Overcast
3:55 AM 57.2 °F 44.6 °F 63% 29.95 in 10.0 mi South 9.2 mph - N/A   Overcast
4:15 AM 57.2 °F 46.4 °F 67% 29.95 in 10.0 mi South 9.2 mph - N/A   Overcast
4:35 AM 57.2 °F 46.4 °F 67% 29.95 in 10.0 mi South 9.2 mph - N/A   Overcast
4:55 AM 57.2 °F 46.4 °F 67% 29.95 in 10.0 mi South 9.2 mph - N/A   Overcast
5:15 AM 57.2 °F 46.4 °F 67% 29.95 in 10.0 mi South 10.4 mph - N/A   Overcast
5:35 AM 57.2 °F 48.2 °F 72% 29.95 in 10.0 mi South 11.5 mph 17.3 mph N/A   Overcast
5:55 AM 57.2 °F 48.2 °F 72% 29.96 in 10.0 mi South 11.5 mph 16.1 mph N/A   Overcast
6:15 AM 59.0 °F 48.2 °F 67% 29.96 in 10.0 mi South 9.2 mph - N/A   Overcast
6:35 AM 59.0 °F 50.0 °F 72% 29.96 in 10.0 mi South 11.5 mph 17.3 mph N/A   Overcast
6:55 AM 59.0 °F 50.0 °F 72% 29.97 in 10.0 mi South 11.5 mph 18.4 mph N/A   Mostly Cloudy
7:15 AM 59.0 °F 51.8 °F 77% 29.98 in 10.0 mi South 10.4 mph 17.3 mph N/A   Overcast
7:35 AM 60.8 °F 51.8 °F 72% 29.99 in 10.0 mi South 10.4 mph 17.3 mph N/A   Overcast
7:55 AM 60.8 °F 51.8 °F 72% 29.99 in 10.0 mi South 10.4 mph 17.3 mph N/A   Overcast
8:15 AM 60.8 °F 51.8 °F 72% 30.00 in 10.0 mi South 11.5 mph 19.6 mph N/A   Overcast
8:35 AM 60.8 °F 51.8 °F 72% 30.01 in 10.0 mi South 11.5 mph 18.4 mph N/A   Overcast
8:55 AM 60.8 °F 51.8 °F 72% 30.01 in 10.0 mi South 12.7 mph 17.3 mph N/A   Overcast
9:15 AM 60.8 °F 53.6 °F 77% 30.01 in 10.0 mi South 10.4 mph - N/A   Overcast
9:35 AM 62.6 °F 53.6 °F 72% 30.02 in 10.0 mi South 12.7 mph 16.1 mph N/A   Overcast
10:15 AM 62.6 °F 53.6 °F 72% 30.03 in 10.0 mi South 10.4 mph 16.1 mph N/A   Overcast
10:35 AM 62.6 °F 53.6 °F 72% 30.03 in 10.0 mi South 12.7 mph 20.7 mph N/A   Overcast
10:55 AM 62.6 °F 53.6 °F 72% 30.03 in 10.0 mi SSW 13.8 mph 20.7 mph N/A   Overcast
11:15 AM 64.4 °F 55.4 °F 73% 30.03 in 10.0 mi South 13.8 mph 23.0 mph N/A   Overcast
11:35 AM 62.6 °F 53.6 °F 72% 30.02 in 10.0 mi SSW 9.2 mph 20.7 mph N/A   Overcast
11:55 AM 62.6 °F 55.4 °F 77% 30.01 in 10.0 mi South 11.5 mph - N/A   Overcast
12:15 PM 62.6 °F 55.4 °F 77% 30.01 in 10.0 mi SSW 13.8 mph 18.4 mph N/A   Overcast
12:35 PM 64.4 °F 55.4 °F 73% 30.00 in 10.0 mi South 11.5 mph 20.7 mph N/A   Overcast
12:55 PM 64.4 °F 55.4 °F 73% 30.00 in 10.0 mi South 11.5 mph - N/A   Overcast
1:15 PM 64.4 °F 55.4 °F 73% 29.99 in 10.0 mi South 10.4 mph - N/A   Overcast
1:35 PM 64.4 °F 55.4 °F 73% 29.99 in 10.0 mi SSW 8.1 mph - N/A   Overcast
1:55 PM 64.4 °F 55.4 °F 73% 29.99 in 10.0 mi South 11.5 mph 18.4 mph N/A   Overcast
2:15 PM 64.4 °F 55.4 °F 73% 29.99 in 10.0 mi South 9.2 mph - N/A   Overcast
2:35 PM 64.4 °F 55.4 °F 73% 29.99 in 10.0 mi South 6.9 mph - N/A   Overcast
2:55 PM 64.4 °F 55.4 °F 73% 29.99 in 10.0 mi South 8.1 mph - N/A   Overcast
3:35 PM 64.4 °F 55.4 °F 73% 30.00 in 10.0 mi South 9.2 mph - N/A   Overcast
3:55 PM 64.4 °F 55.4 °F 73% 30.00 in 10.0 mi South 9.2 mph - N/A   Overcast
4:15 PM 64.4 °F 55.4 °F 73% 30.00 in 10.0 mi South 8.1 mph - N/A   Overcast
4:55 PM 64.4 °F 55.4 °F 73% 30.00 in 10.0 mi South 8.1 mph - N/A   Overcast
5:15 PM 64.4 °F 55.4 °F 73% 30.00 in 10.0 mi South 8.1 mph - N/A   Overcast
5:35 PM 64.4 °F 57.2 °F 77% 30.01 in 10.0 mi South 9.2 mph - N/A   Overcast
5:55 PM 64.4 °F 57.2 °F 77% 30.02 in 10.0 mi South 12.7 mph - N/A   Overcast
6:15 PM 64.4 °F 55.4 °F 73% 30.02 in 10.0 mi SSE 10.4 mph - N/A   Overcast
6:35 PM 64.4 °F 55.4 °F 73% 30.02 in 10.0 mi SSE 9.2 mph - N/A   Overcast
6:55 PM 62.6 °F 55.4 °F 77% 30.03 in 10.0 mi SSE 8.1 mph - N/A   Overcast
7:15 PM 62.6 °F 55.4 °F 77% 30.04 in 10.0 mi SSE 9.2 mph - N/A   Overcast
7:35 PM 62.6 °F 55.4 °F 77% 30.04 in 10.0 mi SSE 9.2 mph - N/A   Overcast
7:55 PM 62.6 °F 55.4 °F 77% 30.04 in 10.0 mi SSE 9.2 mph - N/A   Overcast
8:15 PM 62.6 °F 55.4 °F 77% 30.04 in 10.0 mi SSE 10.4 mph - N/A   Overcast
8:35 PM 62.6 °F 55.4 °F 77% 30.04 in 10.0 mi SSE 10.4 mph - N/A   Overcast
8:55 PM 62.6 °F 55.4 °F 77% 30.05 in 10.0 mi SSE 8.1 mph - N/A   Overcast
9:15 PM 62.6 °F 55.4 °F 77% 30.05 in 10.0 mi SSE 11.5 mph - N/A   Overcast
9:35 PM 60.8 °F 57.2 °F 88% 30.05 in 10.0 mi SSE 9.2 mph - N/A   Overcast
9:55 PM 60.8 °F 55.4 °F 82% 30.05 in 10.0 mi SE 6.9 mph - N/A   Mostly Cloudy
10:15 PM 60.8 °F 55.4 °F 82% 30.05 in 9.0 mi SE 6.9 mph - N/A   Mostly Cloudy
10:35 PM 60.8 °F 55.4 °F 82% 30.05 in 10.0 mi SE 6.9 mph - N/A   Overcast
10:55 PM 60.8 °F 55.4 °F 82% 30.05 in 10.0 mi SSE 6.9 mph - N/A   Overcast